User: anonymous   Login
Location: Unspecified
(0.0000°N, 0.0000°E)
Time: 12:58:33
(UTC+00:00)
Language:

ERS-2 - Orbit

View from above orbital plane
View from above orbital plane
View from above satellite
View from above satellite

Ground track
Ground track

The orbit data is extracted from the following two-line orbital elements,

1 23560U 95021A   21336.13008200  .00002777  00000-0  11640-3 0  9990
2 23560  98.5253 209.4266 0004033 137.2154 222.9394 15.24572692423263
Epoch (UTC): 02 December 2021 03:07:19
Eccentricity: 0.0004033
inclination: 98.5253°
perigee height: 489 km
apogee height: 495 km
right ascension of ascending node: 209.4266°
argument of perigee: 137.2154°
revolutions per day: 15.24572692
mean anomaly at epoch: 222.9394°
orbit number at epoch: 42326

The dashed part of the orbit path shows where the satellite is in the earth's shadow,  

DLR